Location: Zengebe
(1.4833°N, 32.5167°E)
Time: 22:47:55
(UTC+00:00)

ARIANE 5 DEB (SYLDA) - Pass Details

Date: 07 June 2020
Orbit: 478 x 18297 km, 2.5° (Epoch: 10 July)

Event Time Altitude Azimuth Distance (km) Brightness Sun altitude
Exits shadow 02:36:20 32° 231° (SW) 896 3.3 -16.1°
Maximum altitude 02:37:31 48° 176° (S) 734 3.3 -15.8°
Drops below altitude 10° 02:42:45 10° 100° (E) 2,866 7.3 -14.6°
Sets 02:47:27 0° 95° (E) 5,071 8.9 -13.5°
